This is the latest recevied weather packets stored in our database for station/object YO8SDE-8. If no packets are shown the sender has not sent any weather packets the latest 10 day(s).
| Time | Temp. | Humidity | Pressure | Rain* | Wind** | Luminosity | Snow |
|---|---|---|---|---|---|---|---|
| 1777928161 | 12.22° C | 60% | 1003 hPa | 0 mm | - | - | - |
| 1777927861 | 12.22° C | 59% | 1003.1 hPa | 0 mm | - | - | - |
| 1777927561 | 12.22° C | 60% | 1003 hPa | 0 mm | - | - | - |
| 1777927261 | 12.78° C | 59% | 1003 hPa | 0 mm | - | - | - |
| 1777926961 | 12.78° C | 59% | 1003 hPa | 0 mm | - | - | - |
| 1777926661 | 12.78° C | 58% | 1003 hPa | 0 mm | - | - | - |
| 1777926361 | 12.78° C | 57% | 1003 hPa | 0 mm | - | - | - |
| 1777926061 | 13.33° C | 57% | 1002.9 hPa | 0 mm | - | - | - |
| 1777925761 | 13.89° C | 56% | 1002.9 hPa | 0 mm | - | - | - |
| 1777925461 | 13.89° C | 56% | 1002.9 hPa | 0 mm | - | - | - |
| 1777925161 | 13.89° C | 56% | 1002.7 hPa | 0 mm | - | - | - |
| 1777924861 | 14.44° C | 54% | 1002.9 hPa | 0 mm | - | - | - |
| 1777924561 | 14.44° C | 54% | 1002.9 hPa | 0 mm | - | - | - |
| 1777924261 | 15° C | 53% | 1002.9 hPa | 0 mm | - | - | - |
| 1777923961 | 15° C | 53% | 1002.8 hPa | 0 mm | - | - | - |
| 1777923661 | 15° C | 53% | 1002.8 hPa | 0 mm | - | - | - |
| 1777923361 | 15° C | 52% | 1002.8 hPa | 0 mm | - | - | - |
| 1777923061 | 15° C | 51% | 1002.8 hPa | 0 mm | - | - | - |
| 1777922761 | 15° C | 51% | 1002.7 hPa | 0 mm | - | - | - |
| 1777922461 | 15.56° C | 49% | 1002.9 hPa | 0 mm | - | - | - |
| 1777922161 | 15.56° C | 48% | 1002.9 hPa | 0 mm | - | - | - |
| 1777921861 | 15.56° C | 48% | 1002.9 hPa | 0 mm | - | - | - |
| 1777921561 | 16.11° C | 47% | 1002.8 hPa | 0 mm | - | - | - |
| 1777921261 | 16.11° C | 46% | 1002.7 hPa | 0 mm | - | - | - |
| 1777920961 | 16.67° C | 46% | 1002.7 hPa | 0 mm | - | - | - |
* Rain latest hour (hover to see other rain measurements)
** Current wind speed in m/s (hover to see current wind gust speed)